Regional Weather Roundup
Issued by NWS Northern Indiana

Home | Current Version | Previous Version | Graphics & Text | Print | Product List | Glossary On
Versions: 1 2 3 4 5 6 7 8 9 10 11 12 13 14 15 16 17 18 19 20 21 22 23 24 25 26 27 28 29 30 31 32 33 34 35 36 37 38 39 40 41 42 43 44 45 46 47 48 49 50
000
ASUS43 KIWX 292200
RWRIWX

KIWX WEATHER ROUNDUP
NATIONAL WEATHER SERVICE NORTHERN INDIANA
600 PM EDT SAT AUG 29 2015

NOTE: "FAIR" INDICATES FEW OR NO CLOUDS BELOW 12,000 FEET WITH NO
SIGNIFICANT WEATHER AND/OR OBSTRUCTIONS TO VISIBILITY.

* THESE STATIONS ARE NOT UNDER NWS QUALITY CONTROL. THEY ALSO MAY NOT
  REPORT WEATHER SUCH AS PRECIPITATION OR FOG.

INZ001>027-292300-
NORTHERN INDIANA

CITY           SKY/WX    TMP DP  RH WIND       PRES   REMARKS
GARY*          CLOUDY    77  66  69 SW7       30.00S
SOUTH BEND     LGT RAIN  69  67  93 E6        30.03F FOG
ELKHART*       CLOUDY    68  68 100 SE5       30.03F FOG
GOSHEN         LGT RAIN  71  69  93 CALM      30.04F FOG
MONTICELLO*    CLOUDY    77  70  78 S3        30.00F
ANGOLA*        MOSUNNY   70  63  78 E3        30.06S
FORT WAYNE     CLOUDY    76  70  82 CALM      30.04F

$$
INZ028>050-292300-
CENTRAL INDIANA

CITY           SKY/WX    TMP DP  RH WIND       PRES   REMARKS
LAFAYETTE      CLOUDY    76  69  79 S6        30.00F
KOKOMO*        CLOUDY    79  66  65 S7        30.02F
MUNCIE*        PTSUNNY   77  66  68 VRB5      30.04F
INDIANAPOLIS   PTSUNNY   80  67  64 S8        30.02F

$$
MIZ043>046-050>051-056>058-064>065-071>073-077>080-292300-
SOUTHWEST LOWER MICHIGAN

CITY           SKY/WX    TMP DP  RH WIND       PRES   REMARKS
BATTLE CREEK   LGT RAIN  69  66  90 N5        30.07S FOG
BENTON HARBOR  CLOUDY    69  66  90 E7        30.02F FOG
COLDWATER*     CLOUDY    71  67  88 SE3       30.06F
HILLSDALE*     CLOUDY    71  69  92 CALM      30.07F
HOLLAND        LGT RAIN  69  65  86 E7        30.05F
GRAND RAPIDS   LGT RAIN  67  65  93 E9        30.06S
KALAMAZOO      LGT RAIN  69  65  86 E3        30.05F
STURGIS*       CLOUDY    70  66  88 E3        30.05F
THREE RIVERS*  LGT RAIN  69  68  94 CALM      30.05F

$$
OHZ001>008-015>018-024>025-292300-
NORTHWEST OHIO

CITY           SKY/WX    TMP DP  RH WIND       PRES   REMARKS
DEFIANCE       LGT RAIN  74  68  81 CALM      30.05F
FINDLAY        CLOUDY    80  68  66 W5        30.04S
TOLEDO EXPRESS LGT RAIN  75  68  78 N3        30.05S
TOLEDO METCALF CLOUDY    79  65  62 CALM      30.05F
LIMA           PTSUNNY   79  67  66 W5        30.06S

$$
AND FOR LAKE MICHIGAN COASTAL AND OPEN LAKE BUOY OBSERVATIONS

STATION/POSITION TEMP    WIND        PRES    VSBY  WAVE
                 AIR SEA DIR/SP/G                  HT/PER
                 (F)     (DEG/KT/KT) (MB)    (MI)  (FT/S)
MICHIGAN CITY     71     120/  5/  7   N/A
BURNS HARBOR      74     180/  8/ 13 1016.3F
SAINT JOSEPH      69     270/  1/  4 1016.9F
SOUTH LAKE BUOY   68 68  100/ 10/ 12 1016.0F         2/ 3
4 MI NW BRIDGMAN  70 70  170/  8/ 10   N/A           1
MICHIGAN CITY     72 71  150/  8/ 10   N/A           1

$$
&&


USA.gov is the U.S. government's official web portal to all federal, state and local government web resources and services.